EW1052 Weather Reports


time (UTC)temp
C
wind
direction
speed
KPH
gust
KPH
rain 1hr
cm
rain 24hr
cm
rain mn
cm
humidity
%
barometer
mb
20260505041513 -17 0.0 0.0 0.00 0.00 0.00 1014.2
20260505040006 -17 0.0 0.0 0.00 0.00 0.00 1014.5
20260505034505 -17 0.0 0.0 0.00 0.00 0.00 1014.8
20260505033058 -17 0.0 0.0 0.00 0.00 0.00 1014.9
20260505031607 -17 0.0 0.0 0.00 0.00 0.00 1015.2
20260505030048 -17 0.0 0.0 0.00 0.00 0.00 1015.2
20260505024544 -17 0.0 0.0 0.00 0.00 0.00 1015.4
20260505023040 -17 0.0 0.0 0.00 0.00 0.00 1015.4
20260505021536 -17 0.0 0.0 0.00 0.00 0.00 1015.7
20260505020033 -17 0.0 0.0 0.00 0.00 0.00 1015.9
20260505014531 -17 0.0 0.0 0.00 0.00 0.00 1016.2
20260505013024 -17 0.0 0.0 0.00 0.00 0.00 1016.4
20260505011529 -17 0.0 0.0 0.00 0.00 0.00 1016.7
20260505010015 -17 0.0 0.0 0.00 0.00 0.00 1016.9
20260505004517 15 150 8.0 19.3 0.00 0.00 0.00 70 1017.3
20260505003006 15 137 6.4 16.1 0.00 0.00 0.00 69 1017.4
20260505001504 15 173 4.8 11.3 0.00 0.00 0.00 70 1017.7
20260505000004 15 153 3.2 8.0 0.00 0.00 0.00 70 1017.9
20260504234559 15 214 3.2 8.0 0.00 0.00 0.00 70 1018.1
20260504233100 15 147 1.6 6.4 0.00 0.00 0.00 70 1018.3
20260504231555 15 143 1.6 6.4 0.00 0.00 0.00 68 1018.5
20260504230105 15 161 1.6 6.4 0.00 0.00 0.00 66 1018.8
20260504224552 15 143 0.0 4.8 0.00 0.00 0.00 64 1018.9
20260504223051 15 142 1.6 4.8 0.00 0.00 0.00 63 1018.8
20260504221559 15 131 0.0 3.2 0.00 0.00 0.00 64 1018.9
20260504220045 15 128 4.8 8.0 0.00 0.00 0.00 66 1019.0
20260504214545 15 65 0.0 1.6 0.00 0.00 0.00 66 1019.1
20260504213045 15 82 1.6 3.2 0.00 0.00 0.00 66 1019.1
20260504211547 15 117 0.0 1.6 0.00 0.00 0.00 67 1019.2
20260504210046 15 146 0.0 9.7 0.00 0.00 0.00 69 1019.4
20260504204542 15 212 4.8 17.7 0.00 0.00 0.00 67 1019.4
20260504203044 16 145 0.0 6.4 0.00 0.00 0.00 65 1019.3
20260504201542 16 158 3.2 9.7 0.00 0.00 0.00 64 1019.2
20260504200041 16 141 1.6 8.0 0.00 0.00 0.00 64 1019.2
20260504194541 16 143 1.6 11.3 0.00 0.00 0.00 62 1019.2
20260504193041 16 186 1.6 11.3 0.00 0.00 0.00 58 1019.0
20260504191541 16 165 0.0 4.8 0.00 0.00 0.00 55 1018.9
20260504190039 17 181 1.6 12.9 0.00 0.00 0.00 53 1018.6
20260504184538 17 155 1.6 8.0 0.00 0.00 0.00 52 1018.5
20260504183037 17 130 3.2 11.3 0.00 0.00 0.00 50 1018.6
20260504181538 17 169 3.2 14.5 0.00 0.00 0.00 47 1018.7
20260504180037 17 165 3.2 14.5 0.00 0.00 0.00 48 1018.6
20260504174536 18 211 8.0 16.1 0.00 0.00 0.00 48 1018.5
20260504173037 18 217 8.0 17.7 0.00 0.00 0.00 48 1018.4
20260504171536 19 211 12.9 24.1 0.00 0.00 0.00 47 1018.1
20260504081538 16 321 3.2 9.7 0.00 0.00 0.00 64 1020.8
20260504050024 10 169 1.6 4.8 0.00 0.00 0.00 79 1020.3